User: anonymous   Login
Location: Hale Hill Observatory
(39.3806°N, 86.8431°W)
Time: 05:29:36
(UTC-04:00)
Language:

Cosmos 990 Rocket - Orbit

View from above orbital plane
View from above orbital plane
View from above satellite
View from above satellite

Ground track
Ground track

The orbit data is extracted from the following two-line orbital elements,

1 10677U 78019B   14299.14801056  .00000460  00000-0  15510-3 0  5447
2 10677 074.0377 284.1041 0016341 239.2871 120.6674 14.39703692923596
Epoch (UTC): 26 October 2014 03:33:08
Eccentricity: 0.0016341
inclination: 74.0377°
perigee height: 748 km
apogee height: 771 km
right ascension of ascending node: 284.1041°
argument of perigee: 239.2871°
revolutions per day: 14.39703692
mean anomaly at epoch: 120.6674°
orbit number at epoch: 92359

The dashed part of the orbit path shows where the satellite is in the earth's shadow,  

DLR